[[{"header":{"parameterUnit":"m.s-1","parameterCategory":1,"la1":30.2991,"la2":30.254,"lo1":-89.0895,"lo2":-89.0444,"dy":0.0017,"dx":0.0017,"nx":28,"ny":28,"refTime":"2025-06-09T21:00:00:Z","depth":0,"parameterNumber":2,"parameterNumberName":"U-component_of_WINDS"},"data":[0,0,0,0,0,0,0,0,0,0,0,0,0,0,0,0,0,0,0,0,0,0,0,0,0,0,0,0,0,0,0,0,0,0,0,0,0,0,0,0,0,0,0,0,0,0,0,0,0,0,0,0,0,0,0,0,0,0,2.3354,2.3354,0,2.341,2.3411,2.3412,2.3414,2.3414,2.3413,2.3412,2.3468,2.347,2.3472,0,0,0,0,0,0,0,0,0,0,0,0,0,2.3243,2.3245,2.3354,2.3354,2.3355,2.341,2.3411,2.3412,2.3414,2.3414,2.3413,2.3412,2.3467,2.347,2.3472,0,0,0,0,0,0,0,0,0,0,0,0,0,2.3295,2.3246,2.3354,2.3363,2.3364,2.341,2.3411,2.3412,2.3414,2.3414,2.3413,2.3412,2.3467,2.347,2.3473,2.3512,0,0,2.3482,2.3484,0,0,0,0,0,0,0,0,2.3292,2.3299,2.3361,2.3362,2.3364,2.3404,2.3393,2.3445,2.3415,2.3395,2.3412,2.3411,2.3447,2.3452,2.3465,2.3515,2.3517,2.3483,2.3485,2.3486,2.3487,0,0,0,0,0,0,0,2.3288,2.3296,2.3376,2.3362,2.3364,2.3363,2.3369,2.3403,2.3426,2.3397,2.3397,2.3404,2.3448,2.3462,2.3466,2.3518,2.3483,2.3485,2.3487,2.3489,2.3599,2.36,0,0,0,0,0,0,2.3283,2.3293,2.3374,2.3378,2.3325,2.3366,2.3373,2.3392,2.3426,2.343,2.3405,2.3404,2.3457,2.3463,2.3468,2.3514,2.3486,2.3489,2.3491,2.3598,2.3599,2.36,0,0,0,0,0,0,2.3281,2.3291,2.3372,2.3336,2.3346,2.3369,2.3391,2.3394,2.3408,2.3432,2.3436,2.3415,2.3456,2.3464,2.35,2.3516,2.349,2.3493,2.3597,2.3598,2.36,2.3608,0,0,0,0,0,0,2.3278,2.329,2.3306,2.3336,2.3348,2.3405,2.3392,2.3396,2.3413,2.3413,2.3442,2.3446,2.3456,2.3496,2.3504,2.352,2.3496,2.3595,2.3597,2.3599,2.3606,2.3609,2.3612,0,0,0,0,0,2.3274,2.3306,2.3307,2.3317,2.3369,2.3406,2.3412,2.3424,2.3415,2.343,2.3445,2.3445,2.3513,2.3499,2.3508,2.3526,2.3594,2.3597,2.3599,2.3605,2.3609,2.3612,0,0,0,0,0,0,2.3278,2.3311,2.3312,2.3355,2.3377,2.3406,2.3426,2.3428,2.3453,2.3451,2.3464,2.347,2.3506,2.352,2.3504,2.3564,2.3553,2.3557,2.3554,2.3558,2.3561,2.3556,2.3498,0,0,0,0,0,2.3284,2.3312,2.3338,2.3374,2.3385,2.3404,2.342,2.3427,2.345,2.346,2.3478,2.35,2.3525,2.3543,2.3568,2.3608,2.3613,2.3624,2.3627,2.363,2.3633,2.3652,2.3657,2.3608,2.3608,2.3608,0,0,2.3296,2.3318,2.3335,2.3375,2.3393,2.342,2.3412,2.3442,2.3461,2.3464,2.3499,2.3513,2.3538,2.3576,2.3593,2.3588,2.3647,2.3633,2.3634,2.3636,2.3655,2.3659,2.3663,2.361,2.3609,2.3609,0,0,2.3332,2.3352,2.3383,2.3401,2.3428,2.344,2.3447,2.3475,2.3484,2.352,2.3522,2.3544,2.359,2.3607,2.3621,2.3661,2.366,2.3668,2.3684,2.3702,2.3706,2.371,2.3721,2.3726,2.3672,2.3672,2.3672,0,2.3344,2.3386,2.3398,2.3427,2.3444,2.3447,2.3477,2.3494,2.3528,2.3538,2.3532,2.3587,2.3605,2.3645,2.3654,2.3667,2.3674,2.3665,2.3705,2.3708,2.3712,2.3723,2.3728,2.3672,2.3672,2.3672,2.3672,0,2.3398,2.3427,2.3448,2.348,2.3499,2.3529,2.3543,2.3561,2.3565,2.3577,2.3611,2.3632,2.366,2.367,2.3675,2.3711,2.3706,2.3703,2.3691,2.3717,2.3728,2.3732,2.3673,2.3673,2.3673,2.3673,0,0,2.344,2.3477,2.3484,2.3497,2.3527,2.3548,2.3576,2.3604,2.3618,2.3641,2.3663,2.37,2.3696,2.3712,2.3719,2.3735,2.3762,2.3729,2.373,2.3733,2.3799,2.3801,2.3806,2.3762,2.3763,2.3764,2.3796,0,2.3478,2.3529,2.3539,2.3582,2.3607,2.361,2.3634,2.3653,2.3664,2.3686,2.3698,2.3723,2.3716,2.3726,2.3742,2.3755,2.3775,2.3753,2.3781,2.3782,2.3774,2.3812,2.3815,2.3845,2.3801,2.3802,2.3802,0,2.353,2.3553,2.3599,2.3622,2.3633,2.3654,2.3679,2.37,2.3721,2.3728,2.3745,2.3749,2.3776,2.3763,2.3799,2.3784,2.3796,2.3804,2.3805,2.3807,2.3793,2.3814,2.3855,2.3859,2.3809,2.3809,2.3808,0,2.3553,2.3595,2.3628,2.3639,2.3668,2.3682,2.3695,2.3715,2.373,2.3751,2.3761,2.3785,2.3798,2.3815,2.3825,2.3815,2.3859,2.3848,2.3864,2.3863,2.3873,2.3872,2.3915,2.3882,2.3882,2.3882,2.3882,0,2.3593,2.3621,2.3638,2.3658,2.3687,2.3698,2.3727,2.3739,2.3756,2.3776,2.378,2.3799,2.3811,2.3831,2.3839,2.3866,2.3872,2.3877,2.3878,2.3876,2.3875,2.3883,2.3881,2.3883,2.3883,2.3883,2.3883,0,2.3624,2.3637,2.3672,2.3695,2.3702,2.3722,2.3742,2.376,2.377,2.3796,2.3802,2.3818,2.3842,2.3853,2.3883,2.3887,2.3918,2.3919,2.3911,2.3911,2.3925,2.3923,2.3974,2.398,2.3945,2.3945,2.3946,0,2.3649,2.367,2.3695,2.3709,2.3722,2.3745,2.376,2.377,2.3785,2.3809,2.3823,2.3847,2.3867,2.3904,2.3917,2.3939,2.3939,2.3956,2.3943,2.3939,2.3938,2.3936,2.3937,2.3958,2.3958,2.3958,2.3959,0,2.3691,2.3695,2.3717,2.3741,2.3758,2.3777,2.3796,2.3807,2.3819,2.3836,2.386,2.3875,2.3904,2.3927,2.3949,2.396,2.3961,2.3963,2.3967,2.3964,2.3958,2.396,2.3915,2.3961,2.3961,2.3961,2.3961,2.3961,2.3718,2.3735,2.3755,2.3779,2.3793,2.381,2.3827,2.3839,2.386,2.3884,2.3889,2.3914,2.3931,2.3961,2.3973,2.3991,2.3988,2.3995,2.3996,2.3997,2.3997,2.3956,2.3996,2.3996,2.3996,2.3995,2.3995,0,2.3758,2.377,2.3792,2.3817,2.3835,2.3834,2.3853,2.3868,2.389,2.3907,2.3925,2.3952,2.3973,2.3987,2.4008,2.402,2.4021,2.4025,2.4024,2.4026,2.4,2.3994,2.4024,2.4024,2.4024,2.4024,2.4024,2.4024,2.3781,2.381,2.3816,2.3852,2.3863,2.3888,2.3899,2.3913,2.3927,2.3956,2.3974,2.3983,2.3998,2.4019,2.4038,2.4042,2.4049,2.4053,2.4056,2.4031,2.4028,2.4025,2.4019,2.4055,2.4055,2.408,2.408,2.4081]},{"header":{"parameterUnit":"m.s-1","parameterCategory":1,"la1":30.2991,"la2":30.254,"lo1":-89.0895,"lo2":-89.0444,"dy":0.0017,"dx":0.0017,"nx":28,"ny":28,"refTime":"2025-06-09T21:00:00:Z","depth":0,"parameterNumber":3,"parameterNumberName":"V-component_of_WINDS"},"data":[0,0,0,0,0,0,0,0,0,0,0,0,0,0,0,0,0,0,0,0,0,0,0,0,0,0,0,0,0,0,0,0,0,0,0,0,0,0,0,0,0,0,0,0,0,0,0,0,0,0,0,0,0,0,0,0,0,0,-0.1566,-0.1567,0,-0.1618,-0.1619,-0.1619,-0.1599,-0.1597,-0.1596,-0.1595,-0.1649,-0.1651,-0.1654,0,0,0,0,0,0,0,0,0,0,0,0,0,-0.1449,-0.1452,-0.1566,-0.1567,-0.1568,-0.1618,-0.1619,-0.1619,-0.1599,-0.1597,-0.1596,-0.1595,-0.1648,-0.1651,-0.1654,0,0,0,0,0,0,0,0,0,0,0,0,0,-0.1501,-0.1452,-0.1566,-0.1563,-0.1564,-0.1618,-0.1619,-0.1619,-0.1599,-0.1597,-0.1596,-0.1594,-0.1647,-0.1651,-0.1654,-0.1714,0,0,-0.1666,-0.1668,0,0,0,0,0,0,0,0,-0.1498,-0.1505,-0.1563,-0.1564,-0.1564,-0.16,-0.1597,-0.1651,-0.16,-0.1586,-0.1595,-0.1593,-0.1634,-0.1639,-0.1653,-0.1717,-0.1719,-0.1666,-0.1669,-0.167,-0.1672,0,0,0,0,0,0,0,-0.1494,-0.1503,-0.1587,-0.1564,-0.1565,-0.1559,-0.1565,-0.1607,-0.162,-0.1587,-0.1585,-0.1592,-0.1634,-0.1649,-0.1654,-0.172,-0.1666,-0.167,-0.1672,-0.1674,-0.1834,-0.1836,0,0,0,0,0,0,-0.1491,-0.15,-0.1585,-0.1588,-0.1526,-0.1563,-0.1569,-0.159,-0.1619,-0.1622,-0.1593,-0.1591,-0.1643,-0.1649,-0.1655,-0.1726,-0.167,-0.1674,-0.1676,-0.1832,-0.1834,-0.1836,0,0,0,0,0,0,-0.1488,-0.1498,-0.1583,-0.1544,-0.1554,-0.1567,-0.1591,-0.1592,-0.1607,-0.1624,-0.1626,-0.1606,-0.1642,-0.165,-0.1699,-0.1728,-0.1676,-0.1679,-0.183,-0.1833,-0.1835,-0.1868,0,0,0,0,0,0,-0.1485,-0.1498,-0.1521,-0.1544,-0.1556,-0.1626,-0.1593,-0.1595,-0.1614,-0.1611,-0.1637,-0.1639,-0.1641,-0.1694,-0.1703,-0.1732,-0.1682,-0.1827,-0.1831,-0.1834,-0.1865,-0.1872,-0.1878,0,0,0,0,0,-0.1481,-0.1529,-0.1522,-0.1533,-0.1586,-0.1628,-0.1635,-0.1636,-0.1616,-0.1639,-0.165,-0.1638,-0.1723,-0.1699,-0.1709,-0.174,-0.1825,-0.183,-0.1834,-0.1862,-0.1871,-0.1878,0,0,0,0,0,0,-0.1509,-0.1532,-0.1525,-0.1582,-0.1603,-0.1625,-0.1654,-0.1646,-0.1673,-0.167,-0.167,-0.1676,-0.1726,-0.1738,-0.1711,-0.1798,-0.1771,-0.1778,-0.1789,-0.1797,-0.1804,-0.18,-0.1685,0,0,0,0,0,-0.1522,-0.1554,-0.1573,-0.1621,-0.1632,-0.1641,-0.166,-0.1659,-0.1681,-0.169,-0.1704,-0.1726,-0.1757,-0.1778,-0.1808,-0.1867,-0.1871,-0.1892,-0.1899,-0.1905,-0.191,-0.194,-0.1949,-0.1851,-0.1851,-0.1851,0,0,-0.1549,-0.1565,-0.1586,-0.1627,-0.1644,-0.1677,-0.1649,-0.1686,-0.171,-0.1696,-0.1742,-0.1753,-0.1778,-0.1832,-0.1856,-0.1843,-0.1938,-0.191,-0.1914,-0.1917,-0.1945,-0.1955,-0.1963,-0.1854,-0.1853,-0.1853,0,0,-0.1614,-0.1631,-0.1672,-0.1689,-0.1713,-0.1719,-0.1729,-0.1751,-0.1757,-0.1804,-0.1793,-0.1822,-0.1877,-0.1894,-0.191,-0.198,-0.197,-0.199,-0.2025,-0.2054,-0.2062,-0.2069,-0.2092,-0.2101,-0.1996,-0.1996,-0.1996,0,-0.1645,-0.1695,-0.1695,-0.1732,-0.175,-0.1737,-0.1778,-0.1794,-0.1828,-0.184,-0.1825,-0.1891,-0.1907,-0.1964,-0.1981,-0.1995,-0.2005,-0.1987,-0.2061,-0.2068,-0.2074,-0.2096,-0.2105,-0.1998,-0.1998,-0.1998,-0.1997,0,-0.173,-0.1764,-0.1795,-0.1826,-0.1848,-0.1887,-0.1892,-0.1914,-0.191,-0.1917,-0.1964,-0.1982,-0.2015,-0.2028,-0.2026,-0.2084,-0.2075,-0.206,-0.2033,-0.2086,-0.2106,-0.2115,-0.2001,-0.2,-0.2,-0.1999,0,0,-0.1815,-0.1845,-0.1856,-0.187,-0.1895,-0.1922,-0.196,-0.1991,-0.2009,-0.2032,-0.2063,-0.2108,-0.2094,-0.2112,-0.2112,-0.2137,-0.219,-0.212,-0.212,-0.2131,-0.2252,-0.2262,-0.2272,-0.2183,-0.2185,-0.2186,-0.225,0,-0.1882,-0.1948,-0.1949,-0.201,-0.2041,-0.2028,-0.2061,-0.208,-0.2087,-0.2114,-0.2122,-0.2153,-0.2134,-0.2144,-0.2169,-0.2178,-0.2214,-0.2174,-0.2211,-0.2212,-0.2204,-0.2284,-0.2295,-0.2354,-0.2258,-0.226,-0.2261,0,-0.1969,-0.1994,-0.2058,-0.2077,-0.209,-0.2119,-0.2147,-0.2173,-0.2194,-0.2197,-0.2216,-0.2211,-0.2248,-0.222,-0.2271,-0.2244,-0.2259,-0.2266,-0.2268,-0.2271,-0.2239,-0.2287,-0.2373,-0.2381,-0.2274,-0.2273,-0.2272,0,-0.2023,-0.2073,-0.2117,-0.2129,-0.2153,-0.2173,-0.2184,-0.2203,-0.2221,-0.2245,-0.2256,-0.2285,-0.23,-0.2322,-0.2324,-0.2303,-0.2375,-0.2347,-0.2377,-0.2377,-0.2393,-0.2391,-0.2481,-0.2404,-0.2404,-0.2404,-0.2404,0,-0.2097,-0.2136,-0.2141,-0.2168,-0.2211,-0.2211,-0.2253,-0.2262,-0.2279,-0.2307,-0.2298,-0.2324,-0.2326,-0.2353,-0.2355,-0.2396,-0.2403,-0.2406,-0.2406,-0.2406,-0.2406,-0.2416,-0.2411,-0.2406,-0.2406,-0.2405,-0.2405,0,-0.2164,-0.217,-0.2216,-0.2235,-0.224,-0.2271,-0.2286,-0.2312,-0.2317,-0.2353,-0.2361,-0.237,-0.24,-0.2405,-0.2441,-0.2442,-0.2491,-0.2487,-0.2484,-0.2483,-0.2512,-0.2509,-0.2611,-0.2623,-0.254,-0.2541,-0.2541,0,-0.2211,-0.224,-0.2261,-0.2279,-0.2291,-0.232,-0.2338,-0.2339,-0.2357,-0.2382,-0.2404,-0.2434,-0.2458,-0.2507,-0.2517,-0.2544,-0.254,-0.2574,-0.2544,-0.2543,-0.2539,-0.2536,-0.2538,-0.2579,-0.258,-0.2581,-0.2581,0,-0.2292,-0.2292,-0.2319,-0.2345,-0.2367,-0.2388,-0.2408,-0.2423,-0.2425,-0.2447,-0.2478,-0.2496,-0.2532,-0.2562,-0.2588,-0.2599,-0.259,-0.259,-0.2599,-0.2599,-0.2595,-0.2596,-0.2498,-0.2588,-0.2587,-0.2587,-0.2587,-0.2586,-0.2349,-0.2374,-0.2392,-0.2421,-0.2436,-0.2454,-0.2478,-0.2486,-0.2512,-0.2541,-0.254,-0.2574,-0.2592,-0.2627,-0.2639,-0.2665,-0.2654,-0.2666,-0.2669,-0.2672,-0.2674,-0.2592,-0.267,-0.267,-0.2669,-0.2669,-0.2669,0,-0.2429,-0.2439,-0.2466,-0.2493,-0.2516,-0.2505,-0.2526,-0.2545,-0.2575,-0.2593,-0.2616,-0.265,-0.2678,-0.2689,-0.2716,-0.2734,-0.2731,-0.2741,-0.2739,-0.2742,-0.2683,-0.2672,-0.2744,-0.2744,-0.2744,-0.2744,-0.2744,-0.2744,-0.2472,-0.2513,-0.2516,-0.2564,-0.2574,-0.2607,-0.2619,-0.2636,-0.2649,-0.2688,-0.2711,-0.2718,-0.2732,-0.276,-0.2784,-0.2787,-0.2796,-0.2808,-0.2809,-0.2754,-0.2746,-0.2739,-0.2729,-0.2811,-0.2811,-0.2865,-0.2866,-0.2866]}]]